• Join FlightAware (Why Join?)
  • Login
  • US Flag 
03:34AM EDT


 

Airport Tracker/Info


-or-


 

Live Flight TrackerFlight Track Log ✈ PDT4236 ✈ 24-May-2013 ✈ KCLT - KHTS

Flight Track Log - Related Links

Times and Time Zones

All times are in EDT time to prevent confusion due to time zone crossing. See the PDT4236 flight status page for this flight to view local times or setup timezone preferences in your user account.

Time Position Orientation Groundspeed Altitude Reporting Facility
EDT Latitude Longitude Course Direction KTS MPH feet Rate Location/Type
02:35PM 35.2267 -80.9547 340° North 126 145 1,500  Level Atlanta Center
02:35PM 35.2542 -80.9689 337° Northwest 130 150 2,400 1,200 Climbing Atlanta Center
02:36PM 35.2967 -80.9928 335° Northwest 160 184 3,700 1,320 Climbing Atlanta Center
02:37PM 35.3813 -81.0240 338° Northwest  Level FlightAware Approximate
02:37PM 35.3367 -81.0142 336° Northwest 160 184 5,100  Level Atlanta Center
02:38PM 35.4549 -81.0490 347° North  Level FlightAware Approximate
02:38PM 35.3536 -81.0211 342° North 158 182 5,900  Level Atlanta Center
02:38PM 35.3767 -81.0306 342° North 146 168 7,100 1,500 Climbing Atlanta Center
02:39PM 35.5268 -81.0768 321° Northwest  Level FlightAware Approximate
02:39PM 35.3894 -81.0353 343° North 142 163 7,400  Level Atlanta Center
02:39PM 35.4125 -81.0444 342° North 144 166 7,900 900 Climbing Atlanta Center
02:40PM 35.5974 -81.1118 340° North  Level FlightAware Approximate
02:40PM 35.4294 -81.0492 347° North 155 178 8,300  Level Atlanta Center
02:41PM 35.4736 -81.0653 343° North 173 199 9,800 1,200 Climbing Atlanta Center
02:42PM 35.5178 -81.0817 343° North 167 192 10,700 900 Climbing Atlanta Center
02:43PM 35.5642 -81.1028 340° North 174 200 11,700 960 Climbing Atlanta Center
02:44PM 35.6106 -81.1192 344° North 174 200 12,700 960 Climbing Atlanta Center
02:45PM 35.6567 -81.1353 344° North 169 194 13,700 840 Climbing Atlanta Center
02:46PM 35.7053 -81.1592 338° Northwest 174 200 14,400 600 Climbing Atlanta Center
02:47PM 35.7539 -81.1778 343° North 174 200 15,000 480 Climbing Atlanta Center
02:48PM 35.8022 -81.2044 336° Northwest 180 207 15,400 420 Climbing Atlanta Center
02:49PM 35.8531 -81.2283 339° North 180 207 15,900 600 Climbing Atlanta Center
02:50PM 35.9014 -81.2522 338° Northwest 185 213 16,700 780 Climbing Atlanta Center
02:51PM 35.9458 -81.2764 336° Northwest 185 213 17,500 600 Climbing Atlanta Center
02:52PM 35.9858 -81.2981 336° Northwest 178 205 17,900 240 Climbing Atlanta Center
02:53PM 36.0303 -81.3197 338° Northwest 178 205 18,000  Climbing Atlanta Center
02:54PM 36.0808 -81.3461 337° Northwest 183 211 18,000  Level Atlanta Center
02:55PM 36.1314 -81.3728 337° Northwest 189 217 18,000  Level Atlanta Center
02:56PM 36.1822 -81.3994 337° Northwest 195 224 18,000  Level Atlanta Center
02:57PM 36.2350 -81.4261 338° Northwest 201 231 18,000  Level Atlanta Center
02:58PM 36.2917 -81.4550 338° Northwest 201 231 18,000 -60 Level Atlanta Center
02:59PM 36.3467 -81.4817 339° North 196 226 17,900  Descending Atlanta Center
03:00PM 36.3992 -81.5083 338° Northwest 202 232 18,000  Climbing Atlanta Center
03:01PM 36.4497 -81.5353 337° Northwest 202 232 18,000  Level Atlanta Center
03:02PM 36.5025 -81.5619 338° Northwest 196 226 18,000  Level Atlanta Center
03:03PM 36.5553 -81.5914 336° Northwest 196 226 18,000  Level Atlanta Center
03:04PM 36.6100 -81.6206 337° Northwest 201 231 18,000  Level Atlanta Center
03:05PM 36.6628 -81.6475 338° Northwest 201 231 18,000  Level Atlanta Center
03:06PM 36.7111 -81.6719 338° Northwest 201 231 18,000  Level Atlanta Center
03:07PM 36.7639 -81.6989 338° Northwest 195 224 18,000  Level Atlanta Center
03:09PM 36.8769 -81.7594 337° Northwest 202 232 18,000 -60 Level Indianapolis Center
03:10PM 36.9311 -81.7864 338° Northwest 206 237 17,900  Descending Indianapolis Center
03:11PM 36.9833 -81.8150 336° Northwest 206 237 18,000  Climbing Indianapolis Center
03:12PM 37.0358 -81.8422 338° Northwest 204 235 18,000  Level Indianapolis Center
03:13PM 37.0972 -81.8750 337° Northwest 206 237 18,000  Level Indianapolis Center
03:14PM 37.1506 -81.9033 337° Northwest 207 238 18,000  Level Indianapolis Center
03:15PM 37.2042 -81.9317 337° Northwest 209 241 18,000  Level Indianapolis Center
03:16PM 37.2575 -81.9603 337° Northwest 208 239 18,000  Level Indianapolis Center
03:17PM 37.3117 -81.9886 337° Northwest 210 242 18,000  Level Indianapolis Center
03:18PM 37.3733 -82.0222 337° Northwest 208 239 18,000  Level Indianapolis Center
03:19PM 37.4281 -82.0508 337° Northwest 210 242 18,000 -180 Level Indianapolis Center
03:20PM 37.4817 -82.0789 337° Northwest 209 241 17,700 -660 Descending Indianapolis Center
03:21PM 37.5428 -82.1133 336° Northwest 231 266 16,700 -1,020 Descending Indianapolis Center
03:22PM 37.6058 -82.1469 337° Northwest 243 280 15,600 -1,020 Descending Indianapolis Center
03:24PM 37.6694 -82.1800 338° Northwest 246 283 14,700 -1,020 Descending Indianapolis Center
03:25PM 37.7392 -82.2175 337° Northwest 236 272 13,500 -1,200 Descending Indianapolis Center
03:26PM 37.8003 -82.2503 337° Northwest 236 272 12,300 -1,200 Descending Indianapolis Center
03:27PM 37.8606 -82.2833 337° Northwest 237 273 11,100 -1,200 Descending Indianapolis Center
03:28PM 37.9139 -82.3350 323° Northwest 249 287 9,900 -1,200 Descending Indianapolis Center
03:29PM 37.9606 -82.3925 316° Northwest 240 276 8,700 -1,320 Descending Indianapolis Center
03:30PM 38.0144 -82.4606 315° West 236 272 7,200 -1,560 Descending Indianapolis Center
03:31PM 38.0736 -82.4878 340° North 231 266 5,500 -1,140 Descending Indianapolis Center
03:32PM 38.1358 -82.5064 347° North 231 266 4,900 -480 Descending Indianapolis Center
03:33PM 38.1964 -82.5203 350° North 224 258 4,500 -420 Descending Indianapolis Center